EN

Hourly Weather Kyshchyntsi

Today, 25 July, Sunday

Time Temperature Precipitation Wind Pressure Humidity
00:00 +21°C° 0 mm 1 mps 745 mmHg 63%
01:00 +21°C° 0 mm 1 mps 745 mmHg 64%
02:00 +21°C° 0 mm 1 mps 745 mmHg 64%
03:00 +21°C° 0 mm 1 mps 745 mmHg 65%
04:00 +21°C° 0 mm 1 mps 745 mmHg 65%
05:00 +21°C° 0 mm 1 mps 745 mmHg 66%
06:00 +22°C° 0 mm 1 mps 745 mmHg 65%
07:00 +20°C° 0 mm 0 mps 746 mmHg 65%
08:00 +21°C° 0 mm 0 mps 746 mmHg 64%
09:00 +22°C° 0 mm 0 mps 746 mmHg 59%
10:00 +25°C° 0 mm 1 mps 746 mmHg 55%
11:00 +26°C° 0 mm 1 mps 747 mmHg 50%
12:00 +27°C° 0 mm 2 mps 746 mmHg 49%
13:00 +27°C° 0 mm 2 mps 746 mmHg 48%
14:00 +27°C° 0 mm 2 mps 746 mmHg 47%
15:00 +27°C° 0 mm 2 mps 746 mmHg 50%
16:00 +26°C° 0 mm 1 mps 746 mmHg 53%
17:00 +26°C° 0 mm 1 mps 746 mmHg 56%
18:00 +25°C° 0 mm 1 mps 746 mmHg 58%
19:00 +24°C° 0 mm 1 mps 746 mmHg 59%
20:00 +20°C° 0 mm 0 mps 746 mmHg 61%
21:00 +22°C° 0 mm 1 mps 747 mmHg 62%
22:00 +22°C° 0 mm 1 mps 747 mmHg 62%
23:00 +21°C° 0 mm 1 mps 747 mmHg 62%

Tomorrow, 26 July, Monday

Time Temperature Precipitation Wind Pressure Humidity
00:00 +20°C° 0 mm 2 mps 747 mmHg 63%
01:00 +19°C° 0 mm 2 mps 747 mmHg 64%
02:00 +19°C° 0 mm 2 mps 747 mmHg 65%
03:00 +19°C° 0 mm 2 mps 747 mmHg 67%
04:00 +18°C° 0 mm 2 mps 747 mmHg 69%
05:00 +18°C° 0 mm 2 mps 747 mmHg 71%
06:00 +19°C° 0 mm 2 mps 747 mmHg 70%
07:00 +21°C° 0 mm 2 mps 747 mmHg 68%
08:00 +23°C° 0 mm 2 mps 747 mmHg 67%
09:00 +24°C° 0 mm 2 mps 748 mmHg 63%
10:00 +26°C° 0 mm 2 mps 748 mmHg 60%
11:00 +27°C° 0 mm 2 mps 748 mmHg 56%
12:00 +27°C° 0 mm 2 mps 748 mmHg 53%
13:00 +28°C° 0 mm 2 mps 747 mmHg 51%
14:00 +28°C° 0 mm 2 mps 747 mmHg 48%
15:00 +28°C° 0 mm 2 mps 747 mmHg 49%
16:00 +28°C° 0 mm 2 mps 747 mmHg 50%
17:00 +28°C° 0 mm 2 mps 747 mmHg 51%
18:00 +26°C° 0 mm 2 mps 747 mmHg 56%
19:00 +24°C° 0 mm 3 mps 747 mmHg 61%
20:00 +22°C° 0 mm 3 mps 747 mmHg 65%
21:00 +21°C° 0 mm 3 mps 747 mmHg 68%
22:00 +20°C° 0 mm 3 mps 747 mmHg 71%
23:00 +20°C° 0 mm 3 mps 747 mmHg 73%

Day after tomorrow, 27 July, Tuesday

Time Temperature Precipitation Wind Pressure Humidity
00:00 +19°C° 0 mm 3 mps 747 mmHg 73%
01:00 +19°C° 0 mm 3 mps 747 mmHg 72%
02:00 +19°C° 0 mm 3 mps 747 mmHg 72%
03:00 +19°C° 0 mm 3 mps 747 mmHg 72%
04:00 +19°C° 0 mm 3 mps 747 mmHg 72%
05:00 +19°C° 0 mm 3 mps 747 mmHg 71%
06:00 +21°C° 0 mm 3 mps 747 mmHg 67%
07:00 +22°C° 0 mm 3 mps 747 mmHg 63%
08:00 +25°C° 0 mm 4 mps 747 mmHg 59%
09:00 +27°C° 0 mm 4 mps 746 mmHg 54%
10:00 +28°C° 0 mm 5 mps 746 mmHg 50%
11:00 +30°C° 0 mm 5 mps 746 mmHg 45%
12:00 +32°C° 0 mm 5 mps 746 mmHg 44%
13:00 +32°C° 0 mm 6 mps 746 mmHg 42%
14:00 +33°C° 0 mm 6 mps 746 mmHg 40%
15:00 +32°C° 0 mm 5 mps 746 mmHg 43%
16:00 +32°C° 0 mm 5 mps 745 mmHg 45%
17:00 +32°C° 0 mm 4 mps 745 mmHg 48%
18:00 +29°C° 0 mm 4 mps 745 mmHg 51%
19:00 +28°C° 0 mm 4 mps 744 mmHg 55%
20:00 +27°C° 0 mm 4 mps 744 mmHg 58%
21:00 +25°C° 0.2 mm 3 mps 744 mmHg 62%
22:00 +24°C° 0.2 mm 3 mps 744 mmHg 67%
23:00 +23°C° 0.2 mm 2 mps 744 mmHg 71%

28 July, Wednesday

Time Temperature Precipitation Wind Pressure Humidity
00:00 +21°C° 0.6 mm 2 mps 744 mmHg 76%
01:00 +20°C° 0.6 mm 3 mps 744 mmHg 81%
02:00 +20°C° 0.6 mm 3 mps 744 mmHg 86%
03:00 +20°C° 0.1 mm 3 mps 743 mmHg 86%
04:00 +20°C° 0.1 mm 3 mps 743 mmHg 87%
05:00 +19°C° 0.1 mm 3 mps 743 mmHg 87%
06:00 +21°C° 0 mm 3 mps 743 mmHg 82%
07:00 +24°C° 0 mm 3 mps 743 mmHg 77%
08:00 +25°C° 0 mm 3 mps 743 mmHg 71%
09:00 +27°C° 0 mm 3 mps 743 mmHg 65%
10:00 +28°C° 0 mm 4 mps 743 mmHg 60%
11:00 +30°C° 0 mm 4 mps 743 mmHg 54%
12:00 +32°C° 0 mm 4 mps 742 mmHg 52%
13:00 +33°C° 0 mm 4 mps 742 mmHg 50%
14:00 +33°C° 0 mm 4 mps 742 mmHg 48%
15:00 +33°C° 0 mm 3 mps 742 mmHg 50%
16:00 +33°C° 0 mm 3 mps 741 mmHg 52%
17:00 +33°C° 0 mm 3 mps 741 mmHg 53%
18:00 +30°C° 0 mm 3 mps 741 mmHg 58%
19:00 +28°C° 0 mm 2 mps 741 mmHg 63%
20:00 +26°C° 0 mm 2 mps 741 mmHg 67%
21:00 +26°C° 0 mm 2 mps 741 mmHg 69%
22:00 +25°C° 0 mm 1 mps 741 mmHg 71%
23:00 +24°C° 0 mm 1 mps 741 mmHg 73%

29 July, Thursday

Time Temperature Precipitation Wind Pressure Humidity
00:00 +23°C° 0.4 mm 1 mps 741 mmHg 76%
01:00 +23°C° 0.4 mm 1 mps 740 mmHg 80%
02:00 +22°C° 0.4 mm 1 mps 740 mmHg 84%
03:00 +21°C° 0.2 mm 2 mps 740 mmHg 86%
04:00 +21°C° 0.2 mm 2 mps 740 mmHg 89%
05:00 +20°C° 0.2 mm 3 mps 740 mmHg 91%
06:00 +22°C° 0 mm 3 mps 740 mmHg 86%
07:00 +24°C° 0 mm 2 mps 740 mmHg 81%
08:00 +26°C° 0 mm 2 mps 740 mmHg 77%
09:00 +27°C° 0 mm 3 mps 740 mmHg 71%
10:00 +29°C° 0 mm 3 mps 740 mmHg 65%
11:00 +30°C° 0 mm 3 mps 740 mmHg 59%
12:00 +30°C° 0.2 mm 4 mps 740 mmHg 59%
13:00 +30°C° 0.2 mm 5 mps 740 mmHg 58%
14:00 +30°C° 0.2 mm 6 mps 740 mmHg 58%
15:00 +29°C° 0 mm 6 mps 740 mmHg 59%
16:00 +29°C° 0 mm 6 mps 740 mmHg 59%
17:00 +28°C° 0 mm 6 mps 740 mmHg 60%
18:00 +27°C° 0 mm 6 mps 740 mmHg 64%
19:00 +25°C° 0 mm 5 mps 740 mmHg 68%
20:00 +23°C° 0 mm 4 mps 741 mmHg 72%
21:00 +22°C° 0 mm 4 mps 741 mmHg 76%
22:00 +21°C° 0 mm 4 mps 741 mmHg 80%
23:00 +20°C° 0 mm 4 mps 741 mmHg 84%

30 July, Friday

Time Temperature Precipitation Wind Pressure Humidity
00:00 +19°C° 0 mm 3 mps 741 mmHg 87%
01:00 +19°C° 0 mm 3 mps 741 mmHg 89%
02:00 +18°C° 0 mm 3 mps 742 mmHg 92%
03:00 +18°C° 0 mm 3 mps 742 mmHg 92%
04:00 +17°C° 0 mm 3 mps 742 mmHg 92%
05:00 +17°C° 0 mm 3 mps 742 mmHg 93%
06:00 +19°C° 0 mm 3 mps 742 mmHg 85%
07:00 +21°C° 0 mm 3 mps 742 mmHg 77%
08:00 +22°C° 0 mm 3 mps 743 mmHg 69%
09:00 +25°C° 0 mm 3 mps 743 mmHg 62%
10:00 +26°C° 0 mm 3 mps 743 mmHg 55%
11:00 +28°C° 0 mm 3 mps 743 mmHg 48%
12:00 +28°C° 0 mm 3 mps 743 mmHg 45%
13:00 +29°C° 0 mm 3 mps 742 mmHg 42%
14:00 +29°C° 0 mm 3 mps 742 mmHg 39%
15:00 +29°C° 0 mm 3 mps 742 mmHg 41%
16:00 +29°C° 0 mm 2 mps 742 mmHg 42%
17:00 +29°C° 0 mm 2 mps 742 mmHg 43%
18:00 +28°C° 0 mm 2 mps 742 mmHg 47%
19:00 +26°C° 0 mm 1 mps 742 mmHg 51%
20:00 +24°C° 0 mm 1 mps 742 mmHg 55%
21:00 +24°C° 0 mm 1 mps 742 mmHg 56%
22:00 +23°C° 0 mm 2 mps 742 mmHg 58%
23:00 +21°C° 0 mm 2 mps 742 mmHg 59%
Show more